Showing default

NUSAT-41 (C PAYNE-G), 56944

Orbit data source: Space-Track

NUSAT-41 (C PAYNE-G), 56944 is a payload satellite owned by URUGUS S.A. (AR) in SSO that was launched on Mon, 12 Jun 2023 UTC via an FALCON 9 launch vehicle from the Air Force Western Test Range (AFWTR). Payload-class satellites include a variety of spacecraft equipped with specific instruments for various scientific and technological missions. These include communications satellites like Starlink; space stations such as the ISS; scientific satellites like the Hubble; Earth observation satellites from companies like Planet Labs, Umbra, and HawkEye 360; GPS; miniature CubeSats for education and research; and military/defense satellites.

Loading next visibility...
Identifier
56944, 2023-084N
Orbit
SSO
Country
Flag of ARAR / ARGN
Related business
Manufacturer
URUGUS S.A.
Mission
Operational Commercial Imaging
Bus & Motor
NEWSAT V, Unknown motor
Mass
41.5 kg wet, 38.5 kg dry
Launch date (UTC)
2023-06-12 (3 years ago)
Launch vehicle
FALCON 9
Launch site
Air Force Western Test Range (AFWTR)
Object type
Payload
Rocket body
Debris
Shape & HBR
Box, 1.0 m
Radar Cross Section
0.542 m², Medium (>0.1 m² and < 1m²)

Expand to show TLE details & history
Last TLE update: 6 hours ago

TLE from 6 hours ago
0 NUSAT-41 (C PAYNE-G)
1 56944U 23084N   26138.82297206  .00007086  00000-0  24690-3 0  9996
2 56944  97.5485 275.0700 0008024  74.0102 286.2022 15.29948349163294
Epoch: 2026-05-18T19:45Z
TLE epoch observation values (Epoch: 2026-05-18T19:45:04.785Z)
Latitude
-0°
Longitude
102.29435°
Altitude
477.535 km
Speed
7.628 km/s
True Right ascension
18h 20m 16s
True Declination
0° 00' 00"
Sunlit
Object was in full shadow at epoch
Visualization orbit readout
Latitude
Unknown
Longitude
Unknown
Altitude
Unknown
Speed
Unknown
Apparent Right ascension
Unknown
Apparent Declination
Unknown
Sunlit
N/A
Visualization observer readout
Local Sidereal Time
10:04:58
Azimuth
Unknown
Elevation
Unknown
Doppler factor
Unknown
Orbital elements
Apogee altitude
478.423 km
Perigee altitude
467.428 km
Semi-major axis
6,851.062 km
Eccentricity
0.0008
Inclination
97.5485°
RAAN
275.07°
Arg. of periapsis
74.0102°
True anomaly
286.11388°
Mean anomaly
286.2022°
Eccentric anomaly
286.15804°
Mean motion
3.82742 °/min
Orbital period
94.06 mins
BSTAR
0.0002469
Loading maneuver chart data...
Computing Atmospheric mass density...

Documentation

Showing up to 5 results
|